DW4360 Weather Reports


Display with metric or nautical units.
time (UTC)temp
F
wind
direction
speed
MPH
gust
MPH
rain 1hr
in
rain 24hr
in
rain mn
in
humidity
%
barometer
mb
20260901050605 71 251 0.0 0.0 0.00 0.00 0.00 60 1006.9
20260901045604 71 251 0.0 0.0 0.00 0.00 0.00 59 1006.9
20260901044602 71 251 0.0 0.0 0.00 0.00 0.00 58 1006.7
20260901043601 72 251 0.0 0.0 0.00 0.00 0.00 57 1006.7
20260901042600 72 251 0.0 0.0 0.00 0.00 0.00 56 1006.5
20260901041559 73 251 0.0 0.0 0.00 0.00 0.00 56 1006.4
20260901040559 73 251 0.0 0.0 0.00 0.00 0.00 55 1006.2
20260901035557 74 251 0.0 0.0 0.00 0.00 0.00 52 1006.0
20260901034557 75 251 0.0 0.0 0.00 0.00 0.00 51 1006.0
20260901033556 76 251 0.0 0.0 0.00 0.00 0.00 50 1005.8
20260901031553 78 251 0.0 0.0 0.00 0.00 0.00 47 1005.5
20260901030552 78 251 0.0 0.0 0.00 0.00 0.00 46 1005.5
20260901025552 79 251 0.0 0.0 0.00 0.00 0.00 44 1005.5
20260901023549 81 251 0.0 0.0 0.00 0.00 0.00 41 1005.5
20260901022549 81 251 0.0 0.0 0.00 0.00 0.00 42 1005.5
20260901015546 83 196 0.0 0.0 0.00 0.00 0.00 40 1005.3
20260901014544 84 248 0.0 0.0 0.00 0.00 0.00 40 1005.2
20260901013543 84 224 0.0 0.0 0.00 0.00 0.00 39 1005.2
20260901012542 84 246 0.0 0.0 0.00 0.00 0.00 39 1005.3
20260901011541 85 246 0.0 0.0 0.00 0.00 0.00 38 1005.4
20260901005539 88 205 3.0 0.0 0.00 0.00 0.00 34 1005.3
20260901004538 89 225 0.0 0.0 0.00 0.00 0.00 33 1005.3
20260901003537 90 236 0.0 0.0 0.00 0.00 0.00 33 1005.3
20260901002536 90 232 0.0 0.0 0.00 0.00 0.00 32 1005.4
20260901000534 89 233 0.0 0.0 0.00 0.00 0.00 33 1005.5
20260831235533 89 233 0.0 0.0 0.00 0.00 0.00 32 1005.5
20260831233531 89 252 0.0 0.0 0.00 0.00 0.00 31 1005.6
20260831231529 88 338 0.0 0.0 0.00 0.00 0.00 31 1005.6
20260831230528 87 338 0.0 0.0 0.00 0.00 0.00 33 1005.7
20260831225527 86 338 0.0 0.0 0.00 0.00 0.00 36 1005.9
20260831224526 86 232 0.0 0.0 0.00 0.00 0.00 35 1006.0
20260831223525 86 231 0.0 0.0 0.00 0.00 0.00 35 1006.2
20260831222524 86 231 0.0 0.0 0.00 0.00 0.00 36 1006.1
20260831220522 88 230 0.0 0.0 0.00 0.00 0.00 34 1006.3
20260831215521 88 322 0.0 0.0 0.00 0.00 0.00 34 1006.5
20260831214520 89 285 0.0 0.0 0.00 0.00 0.00 34 1006.5
20260831213519 88 48 0.0 0.0 0.00 0.00 0.00 35 1006.8
20260831212518 88 311 0.0 0.0 0.00 0.00 0.00 34 1006.8
20260831211517 86 310 0.0 0.0 0.00 0.00 0.00 38 1006.9
20260831210516 85 331 0.0 0.0 0.00 0.00 0.00 38 1007.0
20260831205515 85 323 0.0 0.0 0.00 0.00 0.00 40 1007.1
20260831203513 83 336 0.0 0.0 0.00 0.00 0.00 42 1007.3
20260831202512 82 329 4.0 0.0 0.00 0.00 0.00 43 1007.4
20260831201511 82 335 0.0 0.0 0.00 0.00 0.00 44 1007.6
20260831200510 80 5 0.0 0.0 0.00 0.00 0.00 45 1007.7
20260831195509 80 323 0.0 0.0 0.00 0.00 0.00 47 1007.8
20260831194508 78 322 0.0 0.0 0.00 0.00 0.00 49 1008.0
20260831193507 78 112 0.0 0.0 0.00 0.00 0.00 50 1008.0
20260831192506 76 316 0.0 0.0 0.00 0.00 0.00 51 1008.1
20260831191505 76 329 4.0 0.0 0.00 0.00 0.00 52 1008.4
20260831190504 75 326 0.0 0.0 0.00 0.00 0.00 53 1008.6
20260831185503 74 325 0.0 0.0 0.00 0.00 0.00 54 1008.7
20260831184502 74 320 0.0 0.0 0.00 0.00 0.00 55 1008.8
20260831183501 74 326 0.0 0.0 0.00 0.00 0.00 55 1008.9
20260831182459 74 330 0.0 0.0 0.00 0.00 0.00 54 1009.1
20260831181459 74 313 0.0 0.0 0.00 0.00 0.00 55 1009.2
20260831180459 74 331 5.0 0.0 0.00 0.00 0.00 55 1009.3
20260831175457 74 319 0.0 0.0 0.00 0.00 0.00 58 1009.5
20260831172453 68 330 0.0 0.0 0.00 0.00 0.00 66 1009.7
20260831171453 66 320 0.0 0.0 0.00 0.00 0.00 70 1009.8
20260831165450 63 331 0.0 0.0 0.00 0.00 0.00 75 1009.9
20260831164449 62 312 3.0 0.0 0.00 0.00 0.00 77 1010.0
20260831163448 61 315 0.0 0.0 0.00 0.00 0.00 78 1010.0
20260831162448 61 319 4.0 0.0 0.00 0.00 0.00 80 1010.0
20260831161446 60 324 0.0 0.0 0.00 0.00 0.00 81 1010.3
20260831160445 60 327 0.0 0.0 0.00 0.00 0.00 82 1010.3
20260831154444 59 325 0.0 0.0 0.00 0.00 0.00 84 1010.3
20260831153442 59 317 0.0 0.0 0.00 0.00 0.00 85 1010.3
20260831152442 58 316 2.0 0.0 0.00 0.00 0.00 86 1010.4
20260831151440 58 323 5.0 0.0 0.00 0.00 0.00 87 1010.7
20260831150439 57 325 0.0 0.0 0.00 0.00 0.00 88 1010.6
20260831145438 57 318 0.0 0.0 0.00 0.00 0.00 89 1010.7
20260831144438 56 320 0.0 0.0 0.00 0.00 0.00 89 1010.7
20260831143436 56 320 0.0 0.0 0.00 0.00 0.00 89 1010.7
20260831142436 56 320 0.0 0.0 0.00 0.00 0.00 89 1010.6
20260831141434 56 320 0.0 0.0 0.00 0.00 0.00 88 1010.6
20260831140433 56 320 0.0 0.0 0.00 0.00 0.00 88 1010.7
20260831135432 56 320 0.0 0.0 0.00 0.00 0.00 88 1010.8
20260831133430 56 320 0.0 0.0 0.00 0.00 0.00 87 1010.7
20260831132429 56 320 0.0 0.0 0.00 0.00 0.00 87 1010.8
20260831130427 56 320 0.0 0.0 0.00 0.00 0.00 87 1010.8
20260831125426 56 320 0.0 0.0 0.00 0.00 0.00 86 1010.9
20260831124425 57 320 0.0 0.0 0.00 0.00 0.00 86 1011.0
20260831123424 57 320 0.0 0.0 0.00 0.00 0.00 86 1010.9
20260831122423 57 320 0.0 0.0 0.00 0.00 0.00 86 1011.1
20260831121422 57 320 0.0 0.0 0.00 0.00 0.00 86 1011.2
20260831120421 57 320 0.0 0.0 0.00 0.00 0.00 86 1011.2
20260831115420 58 320 0.0 0.0 0.00 0.00 0.00 85 1011.2
20260831114419 58 320 0.0 0.0 0.00 0.00 0.00 84 1011.3
20260831113418 58 320 0.0 0.0 0.00 0.00 0.00 84 1011.4
20260831112417 58 320 0.0 0.0 0.00 0.00 0.00 84 1011.4
20260831111416 59 320 0.0 0.0 0.00 0.00 0.00 83 1011.5
20260831105414 59 320 0.0 0.0 0.00 0.00 0.00 83 1011.6
20260831103412 59 320 0.0 0.0 0.00 0.00 0.00 82 1011.6
20260831102411 60 320 0.0 0.0 0.00 0.00 0.00 82 1011.7
20260831101410 60 320 0.0 0.0 0.00 0.00 0.00 81 1011.7
20260831100409 60 320 0.0 0.0 0.00 0.00 0.00 81 1011.8
20260831095408 60 320 0.0 0.0 0.00 0.00 0.00 81 1011.9
20260831094407 60 320 0.0 0.0 0.00 0.00 0.00 81 1012.0
20260831093406 60 320 0.0 0.0 0.00 0.00 0.00 81 1012.1
20260831092405 60 320 0.0 0.0 0.00 0.00 0.00 81 1012.1
20260831091404 60 320 0.0 0.0 0.00 0.00 0.00 81 1012.2
20260831090403 60 320 0.0 0.0 0.00 0.00 0.00 80 1012.3
20260831083400 61 319 0.0 0.0 0.00 0.00 0.00 79 1012.6
20260831082359 61 319 0.0 0.0 0.00 0.00 0.00 78 1012.8
20260831081358 62 320 0.0 0.0 0.00 0.00 0.00 78 1012.8
20260831080357 62 320 0.0 0.0 0.00 0.00 0.00 77 1012.9
20260831075356 62 319 0.0 0.0 0.00 0.00 0.00 77 1013.0
20260831073354 63 319 0.0 0.0 0.00 0.00 0.00 76 1013.0
20260831071352 63 319 0.0 0.0 0.00 0.00 0.00 75 1013.2
20260831070351 63 319 0.0 0.0 0.00 0.00 0.00 74 1013.2
20260831065349 64 319 0.0 0.0 0.00 0.00 0.00 74 1013.3
20260831064349 64 309 0.0 0.0 0.00 0.00 0.00 74 1013.4
20260831063348 64 327 0.0 0.0 0.00 0.00 0.00 73 1013.5
20260831060344 65 327 0.0 0.0 0.00 0.00 0.00 71 1013.7
20260831053341 65 325 3.0 0.0 0.00 0.00 0.00 70 1013.9